Regional Weather Roundup
Issued by NWS Bismarck, ND

Home | Current Version | Previous Version | Text Only | Print | Product List | Glossary On
Versions: 1 2 3 4 5 6 7 8 9 10 11 12 13 14 15 16 17 18 19 20 21 22 23 24 25 26 27 28 29 30 31 32 33 34 35 36 37 38 39 40 41 42 43 44 45 46 47 48 49 50
000
ASUS43 KBIS 210410
RWRBIS

NWR BROADCAST TEXT
NATIONAL WEATHER SERVICE BISMARCK ND
1100 PM CDT FRI APR 20 2018

NOTE: "FAIR" INDICATES FEW OR NO CLOUDS BELOW 12,000 FEET WITH NO
SIGNIFICANT WEATHER AND/OR OBSTRUCTIONS TO VISIBILITY.


CITY           SKY/WX    TMP DP  RH WIND       PRES   REMARKS
WILLISTON      CLEAR     52  35  52 S10       30.14S
MINOT          CLEAR     42  33  70 SE7       30.22S
MINOT AFB      CLEAR     40  36  85 S10       30.20S
BISMARCK       CLEAR     41  32  70 S7        30.29F
DICKINSON      CLEAR     43  38  82 S12       30.19S
GARRISON         N/A     42  32  67 S12       30.23F
HETTINGER ARPT MOCLDY    41  35  79 S12       30.23S
JAMESTOWN      CLOUDY    42  36  79 S10       30.32F
CARRINGTON     CLOUDY    41  36  81 S12       30.33S
HAZEN          CLOUDY    43  34  70 S9        30.27S
LINTON           N/A    N/A N/A N/A SE9       30.33S
MANDAN         FAIR      39  34  81 SE8       30.29S
OAKES            N/A     36  36 100 S8        30.36S
RUGBY          FAIR      43  37  81 S14       30.26F
STANLEY          N/A     41  37  87 S7        30.21S
TIOGA          FAIR      37  37 100 SE9       30.18S
WATFORD CITY   FAIR      50  36  57 S20G26    30.16S
$$

CITY           SKY/WX    TMP DP  RH WIND       PRES   REMARKS
GRAND FORKS    FAIR      38  32  79 S7        30.35S
GRAND FORKS AF FAIR      40  31  69 S7        30.35S
DEVILS LAKE    FAIR      38  32  79 SE8       30.32S
FARGO          FAIR      44  35  70 S12       30.38R
CANDO          FAIR      37  37 100 SE10      30.31F
CAVALIER         N/A     39  32  75 S7        30.33F
GRAFTON        FAIR      36  30  80 S8        30.36F
GWINNER          N/A     39  37  93 S5        30.36F
LANGDON        FAIR      37  37 100 SE12      30.31F
ROLLA          FAIR      39  37  93 S12       30.28S
WALHALLA       FAIR      37  32  81 SE7       30.33S
$$

CITY           SKY/WX    TMP DP  RH WIND       PRES   REMARKS
ABERDEEN       MOCLDY    39  36  89 S8        30.36S
MOBRIDGE       CLOUDY    45  37  73 SE9       30.28F
BUFFALO          N/A     40  36  86 SE23      30.12S
RAPID CITY     CLOUDY    39  38  96 SE12      30.23S
GLASGOW        CLEAR     50  37  61 E8        30.06F
SIDNEY         CLEAR     49  36  61 S10       30.14R
WOLF POINT     CLEAR     54  36  50 E3        30.09R
GLENDIVE       CLEAR     50  39  66 SE16      30.14R
MILES CITY     CLEAR     52  38  58 SE9       30.09R
BAKER          CLEAR     41  38  89 SE20      30.16S
$$

CITY           SKY/WX    TMP DP  RH WIND       PRES   REMARKS
BILLINGS       CLEAR     53  35  50 NE6       30.09R
GREAT FALLS    CLEAR     43  25  49 SW8       30.07R
REGINA         PTCLDY    46  37  71 SE17      30.12S
ESTEVAN        PTCLDY    41  34  75 SE9       30.15F
$$





USA.gov is the U.S. government's official web portal to all federal, state and local government web resources and services.